This is the latest recevied weather packets stored in our database for station/object DL6DJ-15. If no packets are shown the sender has not sent any weather packets the latest 10 day(s).
| Time | Temp. | Humidity | Pressure | Rain* | Wind** | Luminosity | Snow |
|---|---|---|---|---|---|---|---|
| 1778078897 | 21.11° C | 37% | 1005.6 hPa | - | - | - | - |
| 1778078597 | 21.67° C | 36% | 1005.6 hPa | - | - | - | - |
| 1778078297 | 22.22° C | 36% | 1005.7 hPa | - | - | - | - |
| 1778077996 | 22.22° C | 35% | 1005.5 hPa | - | - | - | - |
| 1778077696 | 22.22° C | 36% | 1005.7 hPa | - | - | - | - |
| 1778077396 | 22.22° C | 35% | 1005.7 hPa | - | - | - | - |
| 1778077095 | 22.22° C | 36% | 1005.8 hPa | - | - | - | - |
| 1778076795 | 22.78° C | 36% | 1005.6 hPa | - | - | - | - |
| 1778076494 | 22.78° C | 35% | 1005.7 hPa | - | - | - | - |
| 1778076194 | 22.78° C | 37% | 1005.7 hPa | - | - | - | - |
| 1778075893 | 22.22° C | 38% | 1005.8 hPa | - | - | - | - |
| 1778075593 | 22.22° C | 35% | 1005.8 hPa | - | - | - | - |
| 1778075293 | 22.78° C | 35% | 1005.8 hPa | - | - | - | - |
| 1778074993 | 23.33° C | 35% | 1005.8 hPa | - | - | - | - |
| 1778074692 | 23.33° C | 37% | 1005.9 hPa | - | - | - | - |
| 1778074392 | 23.89° C | 35% | 1005.9 hPa | - | - | - | - |
| 1778074091 | 22.78° C | 36% | 1006.1 hPa | - | - | - | - |
| 1778073791 | 22.22° C | 37% | 1006.2 hPa | - | - | - | - |
| 1778073491 | 22.78° C | 36% | 1006.1 hPa | - | - | - | - |
| 1778073190 | 23.33° C | 35% | 1006.2 hPa | - | - | - | - |
| 1778072890 | 22.78° C | 37% | 1006.2 hPa | - | - | - | - |
| 1778072589 | 22.78° C | 35% | 1006.4 hPa | - | - | - | - |
| 1778072289 | 23.89° C | 34% | 1006.5 hPa | - | - | - | - |
| 1778071988 | 23.89° C | 34% | 1006.4 hPa | - | - | - | - |
| 1778071688 | 23.89° C | 35% | 1006.4 hPa | - | - | - | - |
* Rain since midnight (hover to see other rain measurements)
** Current wind speed in m/s (hover to see current wind gust speed)